Grand Prairie, TX

3:36 PM CDT on May 29, 2017 (GMT -0500)
Grand Prairie Municipal

Weather History for KGPM - June, 2014

Change the Weather History Date:

Monday, June 9, 2014

  Actual Average (KRBD) Record (KRBD)
Temperature  
Mean Temperature 72 °F -  
Max Temperature 79 °F 86 °F 97 °F (2006)
Min Temperature 64 °F 68 °F 64 °F (2014)
Cooling Degree Days 7    
Growing Degree Days 22 (Base 50)    
Moisture  
Dew Point 64 °F    
Average Humidity 71    
Maximum Humidity 94    
Minimum Humidity 47    
Precipitation  
Precipitation 0.29 in - - ()
Sea Level Pressure  
Sea Level Pressure 29.80 in    
Wind  
Wind Speed 6 mph (South)    
Max Wind Speed 13 mph    
Max Gust Speed 28 mph    
Visibility 9 miles    
Events Rain    
Averages and records for this station are not official NWS values.
T = Trace of Precipitation, MM = Missing Value Source: NWS Daily Summary

Daily Weather History Graph

Daily Weather History Graph

Search for Another Location

Airport or City:

Trip Planner

Search our weather history database for the weather conditions in past years. The results will help you decide how hot, cold, wet, or windy it might be!

Date:

Astronomy

Jun. 09, 2014 Rise Set
Actual Time 6:19 AM CDT 8:35 PM CDT
Civil Twilight 5:51 AM CDT 9:03 PM CDT
Nautical Twilight 5:16 AM CDT 9:38 PM CDT
Astronomical Twilight 4:39 AM CDT 10:16 PM CDT
Moon 5:07 PM CDT (6/9) 3:36 AM CDT (6/9)
Length of Visible Light 15h 12m
Length of Day
14h 15m
Waxing Gibbous, 85% of the Moon is Illuminated
Jun 9
Waxing Gibbous
Jun 12
Full
Jun 19
Last Quarter
Jun 27
New
Jul 5
First Quarter

Hourly Weather History & Observations

Time (CDT) Temp. Heat Index Dew Point Humidity Pressure Visibility Wind Dir Wind Speed Gust Speed Precip Events Conditions
12:15 AM 79.9 °F - 69.8 °F 71% 29.83 in 10.0 mi Calm Calm - N/A   Scattered Clouds
12:35 AM 79.5 °F - 69.8 °F 72% 29.82 in 10.0 mi Calm Calm - N/A   Scattered Clouds
12:55 AM 79.5 °F - 70.0 °F 72% 29.81 in 10.0 mi Calm Calm - N/A   Scattered Clouds
1:15 AM 79.5 °F - 70.0 °F 72% 29.80 in 10.0 mi SE 3.5 mph - N/A   Scattered Clouds
1:35 AM 78.8 °F - 70.2 °F 75% 29.79 in 10.0 mi SE 3.5 mph - N/A   Clear
1:55 AM 78.3 °F - 70.0 °F 76% 29.78 in 10.0 mi SE 8.1 mph - N/A   Scattered Clouds
2:15 AM 78.8 °F - 69.3 °F 72% 29.79 in 10.0 mi SSE 6.9 mph - N/A   Mostly Cloudy
2:35 AM 79.0 °F - 69.1 °F 72% 29.78 in 10.0 mi SSE 6.9 mph - N/A   Scattered Clouds
2:55 AM 78.4 °F - 68.9 °F 72% 29.77 in 10.0 mi SSE 8.1 mph - N/A   Scattered Clouds
3:15 AM 78.3 °F - 68.9 °F 73% 29.77 in 10.0 mi SE 6.9 mph - N/A   Clear
3:35 AM 78.4 °F - 68.5 °F 72% 29.78 in 10.0 mi South 8.1 mph - N/A   Scattered Clouds
3:55 AM 78.3 °F - 68.4 °F 71% 29.76 in 7.0 mi SSE 9.2 mph 18.4 mph N/A   Scattered Clouds
4:15 AM 78.1 °F - 68.5 °F 72% 29.77 in 7.0 mi South 9.2 mph - N/A   Scattered Clouds
4:35 AM 77.5 °F - 68.5 °F 74% 29.76 in 7.0 mi SSE 12.7 mph 19.6 mph N/A   Scattered Clouds
4:55 AM 77.4 °F - 68.9 °F 75% 29.77 in 7.0 mi SSE 12.7 mph 18.4 mph N/A   Clear
5:15 AM 77.0 °F - 68.9 °F 76% 29.76 in 7.0 mi SSE 10.4 mph 20.7 mph N/A   Scattered Clouds
5:35 AM 77.0 °F - 68.9 °F 76% 29.78 in 7.0 mi South 9.2 mph 18.4 mph N/A   Scattered Clouds
5:55 AM 71.4 °F - 59.2 °F 65% 29.84 in 10.0 mi WNW 9.2 mph 27.6 mph N/A   Mostly Cloudy
6:15 AM 65.8 °F - 61.2 °F 85% 29.84 in 2.0 mi West 11.5 mph 19.6 mph 0.03 in   Overcast
6:35 AM 64.0 °F - 62.1 °F 93% 29.81 in 0.5 mi NW 9.2 mph 16.1 mph 0.29 in   Overcast
6:50 AM 64.4 °F - 62.6 °F 94% 29.84 in 1.5 mi NW 4.6 mph 18.4 mph N/A Rain Rain
7:50 AM 64.4 °F - 62.6 °F 94% 29.84 in - NW 6.9 mph - N/A Rain Rain
8:50 AM 64.4 °F - 62.6 °F 94% 29.84 in 7.0 mi NE 9.2 mph - N/A Rain Rain
9:50 AM 64.4 °F - 62.6 °F 94% 29.83 in 7.0 mi ESE 9.2 mph - N/A Rain Rain
10:50 AM 66.2 °F - 62.6 °F 88% 29.83 in 10.0 mi SE 6.9 mph - N/A   Scattered Clouds
11:50 AM 69.8 °F - 62.6 °F 78% 29.85 in 10.0 mi South 11.5 mph - N/A   Overcast
12:50 PM 71.6 °F - 62.6 °F 73% 29.87 in 10.0 mi South 11.5 mph - N/A   Mostly Cloudy
2:50 PM 75.2 °F - 60.8 °F 61% 29.83 in 10.0 mi West 10.4 mph - N/A   Mostly Cloudy
3:50 PM 75.2 °F - 62.6 °F 65% 29.81 in 10.0 mi West 9.2 mph - N/A   Mostly Cloudy
5:50 PM 78.8 °F - 62.6 °F 57% 29.79 in 10.0 mi South 3.5 mph - N/A   Clear
6:50 PM 80.6 °F 81.5 °F 60.8 °F 51% 29.79 in 10.0 mi SSW 9.2 mph - N/A   Clear
7:50 PM 78.8 °F - 57.2 °F 47% 29.78 in 10.0 mi SW 9.2 mph - N/A   Clear
8:15 PM 78.3 °F - 58.5 °F 50% 29.78 in 10.0 mi SSW 8.1 mph - N/A   Clear
8:35 PM 76.8 °F - 59.5 °F 55% 29.78 in 10.0 mi South 6.9 mph - N/A   Clear
8:55 PM 75.6 °F - 61.2 °F 61% 29.78 in 10.0 mi SSW 6.9 mph - N/A   Clear
9:15 PM 74.7 °F - 61.3 °F 63% 29.78 in 10.0 mi SSW 5.8 mph - N/A   Clear
9:35 PM 74.3 °F - 61.2 °F 63% 29.79 in 10.0 mi SSW 5.8 mph - N/A   Clear
9:55 PM 74.1 °F - 61.2 °F 64% 29.79 in 10.0 mi SSW 5.8 mph - N/A   Clear
10:15 PM 73.6 °F - 61.0 °F 65% 29.79 in 10.0 mi SSW 5.8 mph - N/A   Clear
10:35 PM 73.4 °F - 60.8 °F 65% 29.79 in 10.0 mi SSW 6.9 mph - N/A   Clear
10:55 PM 73.2 °F - 60.8 °F 65% 29.79 in 10.0 mi SSW 6.9 mph - N/A   Clear
11:15 PM 73.4 °F - 60.8 °F 65% 29.79 in 10.0 mi SSW 8.1 mph - N/A   Clear
11:35 PM 72.7 °F - 60.8 °F 66% 29.79 in 10.0 mi SW 6.9 mph - N/A   Clear
11:55 PM 73.0 °F - 60.6 °F 65% 29.79 in 10.0 mi WSW 11.5 mph 17.3 mph N/A   Clear